Location: Wapato
(46.4478°N, 120.4212°W)
Time: 08:36:31
(UTC+00:00)

Injun/Solrad 3 - Pass Details

Date: 10 May 2026
Orbit: 867 x 989 km, 66.8° (Epoch: 10 June)

Event Time Altitude Azimuth Distance (km) Brightness Sun altitude
Rises 08:04:23 0° 328° (NNW) 3,662 11.9 -25.9°
Reaches altitude 10° 08:07:12 10° 338° (NNW) 2,727 11.2 -25.9°
Maximum altitude 08:12:58 34° 42° (NE) 1,561 9.4 -25.8°
Drops below altitude 10° 08:18:47 10° 106° (ESE) 2,747 10.2 -25.7°
Enters shadow 08:20:11 - 112° (ESE) 3,207 10.5 -25.7°
Sets 08:21:37 0° 116° (ESE) 3,692 - -25.7°
